Regional Weather Roundup
Issued by NWS

Home | Current Version | Previous Version | Graphics & Text | Print | Product List | Glossary On
Versions: 1 2 3 4 5 6 7 8 9 10 11 12 13 14 15 16 17 18 19 20 21 22 23 24 25 26 27 28 29 30 31 32 33 34 35 36 37 38 39 40 41 42 43 44 45 46 47 48 49 50
678
ASUS43 KTOP 191008
RWRKS

WEATHER ROUNDUP FOR KANSAS
NATIONAL WEATHER SERVICE GOODLAND KS
500 AM CDT TUE SEP 19 2017

NOTE:  "FAIR" INDICATES FEW OR NO CLOUDS BELOW 12,000 FEET WITH NO
SIGNIFICANT WEATHER AND/OR OBSTRUCTIONS TO VISIBILITY.

KSZ001>006-013>018-027>032-041>047-191100-
NORTHWEST KANSAS

CITY           SKY/WX    TMP DP  RH WIND       PRES   REMARKS
GOODLAND       PTCLDY    64  63  96 S21       29.74F FOG
HAYS           CLEAR     69  64  84 S12       29.78F
HILL CITY      CLEAR     69  65  86 VRB5      29.77F
RUSSELL        CLEAR     69  64  84 S13       29.78F
$$

KSZ061>065-074>080-084>089-191100-
SOUTHWEST KANSAS

CITY           SKY/WX    TMP DP  RH WIND       PRES   REMARKS
DODGE CITY     CLEAR     67  63  87 SE10      29.81F
ELKHART          N/A     61  63 100 S9          N/A
GARDEN CITY    CLEAR     64  62  93 SE12      29.79F
GREAT BEND     CLEAR     69  64  84 S10       29.81F
LIBERAL        CLEAR     65  62  90 S10       29.81F
PRATT          CLEAR     71  62  74 S13       29.83F
$$

KSZ066>073-081>083-090>101-191100-
SOUTHEAST KANSAS

CITY           SKY/WX    TMP DP  RH WIND       PRES   REMARKS
CHANUTE        MOCLDY    68  65  90 SE5       29.88F
COFFEYVILLE    MOCLDY    67  65  93 S6        29.87F
HUTCHINSON     CLEAR     66  66 100 SE6       29.83F
MEDICINE LODGE   N/A     70  63  78 SE10      29.82F
NEWTON         CLEAR     65  64  97 SE8       29.86F
WICHITA INTL   PTCLDY    67  67 100 S7        29.84F
WICHITA JABRA  CLEAR     68  67  96 S7        29.85F
WICHITA MCCONL CLEAR     69  65  86 S7        29.84F
WINFIELD       CLEAR     69  67  93 SE7       29.86F
$$

KSZ007>012-019>026-033>040-048>060-102>105-191100-
NORTHEAST KANSAS

CITY           SKY/WX    TMP DP  RH WIND       PRES   REMARKS
CONCORDIA      CLEAR     67  66  97 S9        29.80F
EMPORIA        CLEAR     66  64  93 S8        29.86F
LAWRENCE       CLOUDY    67  67 100 E8        29.86F
MANHATTAN      CLEAR     70  66  87 SW6       29.82F
MARYSVILLE     CLEAR     66  64  94 SE6       29.82F
OLATHE IND     CLOUDY    67  66  97 SE7       29.88F
OLATHE EXE     CLOUDY    66  66 100 E3        29.88F
SALINA         CLEAR     71  66  84 S9        29.81F
TOPEKA BILLARD PTCLDY    66  66 100 E5        29.84F
TOPEKA FORBES  PTCLDY    69  67  93 S7        29.85F
$$




USA.gov is the U.S. government's official web portal to all federal, state and local government web resources and services.